• In Hungary
  • List of Countries
  • For 7 days
  • Water Temperature
  • Satellite Maps
  • Weather Map
  • News
  • Weather Widgets
  • user-avatar
    Login

    Hourly Weather Chumaky

    Today, 16 December, Saturday

    Time Temperature Precipitation Wind Pressure Humidity
    00:00 +4°C° 0 mm 4 mps 749 mmHg 93%
    01:00 +3°C° 0 mm 5 mps 748 mmHg 93%
    02:00 +3°C° 0 mm 5 mps 748 mmHg 94%
    03:00 +5°C° 0 mm 5 mps 748 mmHg 94%
    04:00 +5°C° 0 mm 5 mps 748 mmHg 94%
    05:00 +4°C° 0 mm 6 mps 747 mmHg 94%
    06:00 +5°C° 0 mm 6 mps 747 mmHg 94%
    07:00 +5°C° 0 mm 6 mps 747 mmHg 93%
    08:00 +5°C° 0 mm 7 mps 747 mmHg 92%
    09:00 +6°C° 0.8 mm 7 mps 747 mmHg 90%
    10:00 +6°C° 0.8 mm 8 mps 746 mmHg 88%
    11:00 +7°C° 0.8 mm 8 mps 746 mmHg 85%
    12:00 +9°C° 0 mm 8 mps 745 mmHg 79%
    13:00 +10°C° 0 mm 8 mps 745 mmHg 73%
    14:00 +11°C° 0 mm 9 mps 745 mmHg 67%
    15:00 +11°C° 0 mm 9 mps 745 mmHg 69%
    16:00 +10°C° 0 mm 8 mps 745 mmHg 71%
    17:00 +10°C° 0 mm 8 mps 745 mmHg 74%
    18:00 +10°C° 0 mm 8 mps 745 mmHg 76%
    19:00 +10°C° 0 mm 8 mps 745 mmHg 79%
    20:00 +10°C° 0 mm 8 mps 745 mmHg 81%
    21:00 +10°C° 0 mm 7 mps 745 mmHg 83%
    22:00 +10°C° 0 mm 7 mps 746 mmHg 84%
    23:00 +9°C° 0 mm 6 mps 746 mmHg 86%

    Tomorrow, 17 December, Sunday

    Time Temperature Precipitation Wind Pressure Humidity
    00:00 +9°C° 0.1 mm 6 mps 746 mmHg 87%
    01:00 +9°C° 0.1 mm 5 mps 747 mmHg 89%
    02:00 +10°C° 0.1 mm 4 mps 747 mmHg 90%
    03:00 +8°C° 0.2 mm 4 mps 748 mmHg 89%
    04:00 +7°C° 0.2 mm 4 mps 748 mmHg 87%
    05:00 +7°C° 0.2 mm 3 mps 748 mmHg 85%
    06:00 +5°C° 0.7 mm 3 mps 748 mmHg 84%
    07:00 +5°C° 0.7 mm 3 mps 748 mmHg 84%
    08:00 +4°C° 0.7 mm 4 mps 749 mmHg 83%
    09:00 +4°C° 1.1 mm 4 mps 749 mmHg 84%
    10:00 +4°C° 1.1 mm 4 mps 749 mmHg 85%
    11:00 +4°C° 1.1 mm 4 mps 749 mmHg 85%
    12:00 +4°C° 1.6 mm 4 mps 749 mmHg 86%
    13:00 +3°C° 1.6 mm 4 mps 748 mmHg 86%
    14:00 +3°C° 1.6 mm 4 mps 748 mmHg 86%
    15:00 +3°C° 1.1 mm 4 mps 748 mmHg 87%
    16:00 +3°C° 1.1 mm 4 mps 748 mmHg 87%
    17:00 +2°C° 1.1 mm 5 mps 748 mmHg 88%
    18:00 +2°C° 0.6 mm 5 mps 748 mmHg 88%
    19:00 +2°C° 0.6 mm 5 mps 748 mmHg 89%
    20:00 +2°C° 0.6 mm 5 mps 748 mmHg 89%
    21:00 +2°C° 0.5 mm 5 mps 748 mmHg 89%
    22:00 +2°C° 0.5 mm 5 mps 748 mmHg 89%
    23:00 +2°C° 0.5 mm 5 mps 748 mmHg 89%

    Day after tomorrow, 18 December, Monday

    Time Temperature Precipitation Wind Pressure Humidity
    00:00 +1°C° 0.6 mm 5 mps 748 mmHg 89%
    01:00 +1°C° 0.6 mm 6 mps 748 mmHg 89%
    02:00 +1°C° 0.6 mm 6 mps 748 mmHg 89%
    03:00 +1°C° 0.2 mm 6 mps 747 mmHg 88%
    04:00 +1°C° 0.2 mm 6 mps 747 mmHg 88%
    05:00 +1°C° 0.2 mm 6 mps 747 mmHg 87%
    06:00 -1°C° 0.4 mm 6 mps 748 mmHg 87%
    07:00 -1°C° 0.4 mm 6 mps 748 mmHg 87%
    08:00 -1°C° 0.4 mm 6 mps 748 mmHg 87%
    09:00 -1°C° 0.4 mm 6 mps 748 mmHg 87%
    10:00 -1°C° 0.4 mm 6 mps 748 mmHg 86%
    11:00 -1°C° 0.4 mm 6 mps 749 mmHg 86%
    12:00 -1°C° 0.1 mm 6 mps 749 mmHg 86%
    13:00 -1°C° 0.1 mm 6 mps 749 mmHg 86%
    14:00 -1°C° 0.1 mm 6 mps 749 mmHg 86%
    15:00 -2°C° 0.1 mm 6 mps 750 mmHg 86%
    16:00 -2°C° 0.1 mm 6 mps 750 mmHg 86%
    17:00 -2°C° 0.1 mm 6 mps 751 mmHg 86%
    18:00 -2°C° 0 mm 6 mps 751 mmHg 85%
    19:00 -2°C° 0 mm 6 mps 752 mmHg 85%
    20:00 -3°C° 0 mm 6 mps 753 mmHg 84%
    21:00 -2°C° 0 mm 5 mps 753 mmHg 84%
    22:00 -2°C° 0 mm 5 mps 754 mmHg 85%
    23:00 -2°C° 0 mm 5 mps 754 mmHg 85%

    19 December, Tuesday

    Time Temperature Precipitation Wind Pressure Humidity
    00:00 -4°C° 0 mm 5 mps 754 mmHg 85%
    01:00 -3°C° 0 mm 4 mps 755 mmHg 86%
    02:00 -3°C° 0 mm 4 mps 755 mmHg 87%
    03:00 -3°C° 0 mm 4 mps 755 mmHg 87%
    04:00 -5°C° 0 mm 5 mps 756 mmHg 87%
    05:00 -5°C° 0 mm 5 mps 756 mmHg 86%
    06:00 -5°C° 0 mm 5 mps 756 mmHg 85%
    07:00 -4°C° 0 mm 5 mps 757 mmHg 83%
    08:00 -4°C° 0 mm 5 mps 757 mmHg 81%
    09:00 -4°C° 0 mm 5 mps 758 mmHg 80%
    10:00 -4°C° 0 mm 5 mps 758 mmHg 79%
    11:00 -4°C° 0 mm 5 mps 758 mmHg 78%
    12:00 -4°C° 0 mm 5 mps 758 mmHg 77%
    13:00 -2°C° 0 mm 5 mps 758 mmHg 76%
    14:00 -2°C° 0 mm 4 mps 758 mmHg 76%
    15:00 -3°C° 0 mm 4 mps 759 mmHg 76%
    16:00 -3°C° 0 mm 4 mps 759 mmHg 75%
    17:00 -3°C° 0 mm 4 mps 759 mmHg 75%
    18:00 -3°C° 0 mm 4 mps 759 mmHg 74%
    19:00 -3°C° 0 mm 4 mps 760 mmHg 74%
    20:00 -3°C° 0 mm 4 mps 760 mmHg 73%
    21:00 -2°C° 0 mm 3 mps 760 mmHg 73%
    22:00 -2°C° 0 mm 3 mps 760 mmHg 72%
    23:00 -2°C° 0 mm 3 mps 760 mmHg 72%

    20 December, Wednesday

    Time Temperature Precipitation Wind Pressure Humidity
    00:00 -2°C° 0 mm 3 mps 760 mmHg 71%
    01:00 -2°C° 0 mm 3 mps 760 mmHg 71%
    02:00 -2°C° 0 mm 3 mps 760 mmHg 70%
    03:00 -2°C° 0 mm 3 mps 760 mmHg 70%
    04:00 -2°C° 0 mm 3 mps 760 mmHg 70%
    05:00 -2°C° 0 mm 2 mps 760 mmHg 70%
    06:00 -3°C° 0 mm 2 mps 760 mmHg 71%
    07:00 -3°C° 0 mm 2 mps 761 mmHg 71%
    08:00 -3°C° 0 mm 2 mps 761 mmHg 72%
    09:00 -2°C° 0 mm 2 mps 761 mmHg 70%
    10:00 -2°C° 0 mm 2 mps 761 mmHg 69%
    11:00 -2°C° 0 mm 2 mps 761 mmHg 67%
    12:00 -2°C° 0 mm 2 mps 761 mmHg 67%
    13:00 -2°C° 0 mm 2 mps 761 mmHg 67%
    14:00 -2°C° 0 mm 2 mps 761 mmHg 67%
    15:00 -2°C° 0 mm 2 mps 761 mmHg 69%
    16:00 -3°C° 0 mm 2 mps 761 mmHg 71%
    17:00 -3°C° 0 mm 2 mps 761 mmHg 73%
    18:00 -3°C° 0 mm 2 mps 761 mmHg 72%
    19:00 -1°C° 0 mm 1 mps 762 mmHg 72%
    20:00 -1°C° 0 mm 1 mps 762 mmHg 71%
    21:00 -1°C° 0 mm 1 mps 762 mmHg 72%
    22:00 -4°C° 0 mm 2 mps 762 mmHg 72%
    23:00 -4°C° 0 mm 2 mps 762 mmHg 73%

    21 December, Thursday

    Time Temperature Precipitation Wind Pressure Humidity
    00:00 -4°C° 0 mm 2 mps 761 mmHg 72%
    01:00 -2°C° 0 mm 1 mps 761 mmHg 72%
    02:00 -2°C° 0 mm 1 mps 761 mmHg 72%
    03:00 -2°C° 0 mm 1 mps 761 mmHg 71%
    04:00 -2°C° 0 mm 1 mps 761 mmHg 71%
    05:00 -2°C° 0 mm 1 mps 761 mmHg 70%
    06:00 -2°C° 0 mm 1 mps 761 mmHg 71%
    07:00 -2°C° 0 mm 1 mps 761 mmHg 71%
    08:00 -2°C° 0 mm 1 mps 761 mmHg 71%
    09:00 -2°C° 0 mm 1 mps 761 mmHg 68%
    10:00 -2°C° 0 mm 1 mps 761 mmHg 66%
    11:00 -1°C° 0 mm 1 mps 761 mmHg 64%
    12:00 -1°C° 0 mm 1 mps 761 mmHg 64%
    13:00 -1°C° 0 mm 1 mps 760 mmHg 64%
    14:00 -1°C° 0 mm 1 mps 760 mmHg 63%
    15:00 -1°C° 0 mm 1 mps 760 mmHg 67%
    16:00 -2°C° 0 mm 1 mps 760 mmHg 70%
    17:00 -3°C° 0 mm 0 mps 760 mmHg 73%
    18:00 -2°C° 0 mm 1 mps 759 mmHg 74%
    19:00 -2°C° 0 mm 1 mps 759 mmHg 75%
    20:00 -2°C° 0 mm 1 mps 759 mmHg 76%
    21:00 -3°C° 0 mm 1 mps 759 mmHg 76%
    22:00 -3°C° 0 mm 1 mps 758 mmHg 77%
    23:00 -3°C° 0 mm 1 mps 758 mmHg 78%
    Show more